Location: Brantley
(31.5822°N, 86.2569°W)
Time: 23:09:51
(UTC+00:00)

A-11 Canister half - Pass Details

Date: 16 February 2026
Orbit: 1525 x 1683 km, 47.3° (Epoch: 10 March)

Event Time Altitude Azimuth Distance (km) Brightness Sun altitude
Rises 02:08:42 0° 297° (WNW) 4,677 12.5 -33.9°
Reaches altitude 10° 02:12:17 10° 308° (NW) 3,691 11.6 -34.7°
Maximum altitude 02:20:16 31° 8° (N) 2,439 9.9 -36.4°
Enters shadow 02:20:43 31° 13° (NNE) 2,445 9.9 -36.5°
